Weather History for Sault Ste Marie, MI

Change the Weather History Date:

Sunday, January 12, 2014

  Actual Average Record
Temperature  
Mean Temperature 32 °F 15 °F  
Max Temperature 33 °F 23 °F 47 °F (2013)
Min Temperature 30 °F 8 °F -30 °F (1912)
Degree Days  
Heating Degree Days 33 50  
Month to date heating degree days 647 588  
Since 1 July heating degree days 4162 3847  
Moisture  
Dew Point 26 °F    
Average Humidity 79    
Maximum Humidity 85    
Minimum Humidity 72    
Precipitation  
Precipitation 0.03 in 0.07 in 1.05 in (1896)
Month to date precipitation 0.75 0.92  
Year to date precipitation 0.75 0.92  
Snow  
Snow 0.40 in 1.00 in 12.00 in (1896)
Month to date snowfall 9.1 12.6  
Since 1 July snowfall 63.8 62.8  
Snow Depth 17.00 in    
Sea Level Pressure  
Sea Level Pressure 29.58 in    
Wind  
Wind Speed 10 mph (SW)    
Max Wind Speed 18 mph    
Max Gust Speed 28 mph    
Visibility 8 miles    
Events Fog , Snow    
T = Trace of Precipitation, MM = Missing Value Source: NWS Daily Summary

Daily Weather History Graph

Daily Weather History Graph

Search for Another Location

Airport:

Trip Planner

Search our weather history database for the weather conditions in past years. The results will help you decide how hot, cold, wet, or windy it might be!

Date:

Astronomy

Jan. 12, 2014 Rise Set
Actual Time 8:18 AM EST 5:13 PM EST
Civil Twilight 7:44 AM EST 5:47 PM EST
Nautical Twilight 7:06 AM EST 6:25 PM EST
Astronomical Twilight 6:30 AM EST 7:01 PM EST
Moon 2:41 PM EST (1/12) 5:14 AM EST (1/12)
Length of Visible Light 10h 02m
Length of Day
8h 54m
Waxing Gibbous, 89% of the Moon is Illuminated
Jan 12
Waxing Gibbous
Jan 15
Full
Jan 24
Last Quarter
Jan 30
New
Feb 6
First Quarter

Hourly Weather History & Observations

Time (EST) Temp. Windchill Dew Point Humidity Pressure Visibility Wind Dir Wind Speed Gust Speed Precip Events Conditions
12:05 AM 32.0 °F 24.2 °F 27.0 °F 82% 29.43 in 9.0 mi WNW 9.2 mph 18.4 mph N/A   Overcast
12:55 AM 32.0 °F 21.2 °F 27.0 °F 82% 29.46 in 7.0 mi WNW 16.1 mph 24.2 mph 0.00 in   Overcast
1:17 AM 32.0 °F 22.5 °F 26.1 °F 79% 29.45 in 9.0 mi WNW 12.7 mph 20.7 mph N/A   Overcast
1:32 AM 32.0 °F 21.2 °F 26.1 °F 79% 29.46 in 9.0 mi WNW 16.1 mph 28.8 mph N/A   Overcast
1:55 AM 32.0 °F 24.2 °F 25.0 °F 75% 29.48 in 9.0 mi WNW 9.2 mph 20.7 mph N/A   Overcast
2:48 AM 32.0 °F 22.5 °F 26.1 °F 79% 29.50 in 8.0 mi West 12.7 mph - 0.00 in Snow Light Snow
2:55 AM 32.0 °F 22.5 °F 26.1 °F 79% 29.53 in 6.0 mi WNW 12.7 mph - 0.00 in Snow Light Snow
3:51 AM 30.2 °F 20.8 °F 26.6 °F 86% 29.53 in 7.0 mi WNW 11.5 mph - 0.00 in   Overcast
3:55 AM 32.0 °F 22.1 °F 27.0 °F 82% 29.55 in 8.0 mi WNW 13.8 mph - 0.00 in   Overcast
4:03 AM 32.0 °F 22.5 °F 27.0 °F 82% 29.53 in 8.0 mi WNW 12.7 mph 19.6 mph N/A   Overcast
4:55 AM 32.0 °F 22.5 °F 26.1 °F 79% 29.58 in 10.0 mi West 12.7 mph - N/A   Overcast
5:55 AM 30.9 °F 21.7 °F 27.0 °F 85% 29.60 in 10.0 mi West 11.5 mph - 0.00 in   Overcast
6:55 AM 30.9 °F 22.2 °F 25.0 °F 79% 29.63 in 10.0 mi West 10.4 mph - 0.00 in   Overcast
7:55 AM 30.9 °F 22.2 °F 24.1 °F 76% 29.64 in 10.0 mi WSW 10.4 mph - N/A   Overcast
8:55 AM 30.0 °F 21.1 °F 24.1 °F 79% 29.66 in 10.0 mi SW 10.4 mph - N/A   Overcast
9:55 AM 30.0 °F 22.4 °F 24.1 °F 79% 29.69 in 10.0 mi SW 8.1 mph - N/A   Overcast
10:55 AM 30.9 °F 24.3 °F 23.0 °F 72% 29.70 in 10.0 mi SSW 6.9 mph - N/A   Overcast
11:55 AM 32.0 °F 22.1 °F 24.1 °F 73% 29.69 in 10.0 mi SSW 13.8 mph - N/A   Overcast
12:55 PM 33.1 °F 23.0 °F 26.1 °F 75% 29.65 in 10.0 mi SSW 15.0 mph 21.9 mph N/A   Overcast
1:55 PM 33.1 °F 23.0 °F 27.0 °F 78% 29.64 in 10.0 mi SSW 15.0 mph 20.7 mph N/A   Overcast
2:10 PM 32.0 °F 23.0 °F 27.0 °F 82% 29.62 in 1.8 mi SSW 11.5 mph - 0.00 in Snow Light Snow
2:20 PM 32.0 °F 24.8 °F 28.0 °F 85% 29.61 in 0.5 mi SSW 8.1 mph - 0.00 in Fog , Snow Snow
2:55 PM 30.9 °F 25.2 °F 28.0 °F 89% 29.63 in 1.5 mi South 5.8 mph - 0.03 in Snow Light Snow
2:59 PM 30.9 °F 24.3 °F 28.0 °F 89% 29.62 in 2.0 mi South 6.9 mph - 0.00 in Snow Light Snow
3:07 PM 30.9 °F 22.8 °F 28.0 °F 89% 29.60 in 5.0 mi SE 9.2 mph - 0.00 in   Overcast
3:55 PM 30.9 °F 23.5 °F 28.0 °F 89% 29.60 in 8.0 mi ESE 8.1 mph - 0.00 in   Overcast
4:55 PM 30.9 °F 22.2 °F 27.0 °F 85% 29.57 in 10.0 mi ESE 10.4 mph - N/A   Scattered Clouds
5:55 PM 30.9 °F 24.3 °F 27.0 °F 85% 29.57 in 10.0 mi East 6.9 mph - N/A   Clear
6:55 PM 30.9 °F 24.3 °F 26.1 °F 82% 29.56 in 10.0 mi ESE 6.9 mph - N/A   Clear
7:55 PM 30.0 °F 24.1 °F 26.1 °F 85% 29.55 in 10.0 mi ESE 5.8 mph - N/A   Clear
8:55 PM 30.9 °F 24.3 °F 26.1 °F 82% 29.55 in 10.0 mi SE 6.9 mph - N/A   Clear
9:55 PM 30.9 °F 26.2 °F 26.1 °F 82% 29.55 in 10.0 mi SSE 4.6 mph - N/A   Clear
10:55 PM 32.0 °F 25.6 °F 26.1 °F 79% 29.53 in 10.0 mi SSE 6.9 mph - N/A   Partly Cloudy
11:55 PM 32.0 °F 25.6 °F 26.1 °F 79% 29.54 in 10.0 mi SSE 6.9 mph - N/A   Mostly Cloudy